Siren, WI

10:40 AM CDT on September 22, 2017 (GMT -0500)
Burnett County

Weather History for KRZN - May, 2013

Change the Weather History Date:

Monday, May 20, 2013

  Actual Average Record
Temperature  
Mean Temperature 61 °F -  
Max Temperature 73 °F - - ()
Min Temperature 49 °F - - ()
Degree Days  
Heating Degree Days 4    
Growing Degree Days 11 (Base 50)    
Moisture  
Dew Point 56 °F    
Average Humidity 88    
Maximum Humidity 99    
Minimum Humidity 57    
Precipitation  
Precipitation 0.35 in - - ()
Sea Level Pressure  
Sea Level Pressure 29.60 in    
Wind  
Wind Speed 6 mph (East)    
Max Wind Speed 14 mph    
Max Gust Speed 20 mph    
Visibility 8 miles    
Events Rain    
Averages and records for this station are not official NWS values.
T = Trace of Precipitation, MM = Missing Value Source: NWS Daily Summary

Daily Weather History Graph

Daily Weather History Graph

Search for Another Location

Airport or City:

Trip Planner

Search our weather history database for the weather conditions in past years. The results will help you decide how hot, cold, wet, or windy it might be!

Date:

Astronomy

May. 20, 2013 Rise Set
Actual Time 5:32 AM CDT 8:40 PM CDT
Civil Twilight 4:56 AM CDT 9:16 PM CDT
Nautical Twilight 4:10 AM CDT 10:02 PM CDT
Astronomical Twilight 3:14 AM CDT 10:59 PM CDT
Moon 3:34 PM CDT (5/20) 2:43 AM CDT (5/20)
Length of Visible Light 16h 19m
Length of Day
15h 08m
Waxing Gibbous, 75% of the Moon is Illuminated
May 20
Waxing Gibbous
May 24
Full
May 31
Last Quarter
Jun 8
New
Jun 16
First Quarter

Hourly Weather History & Observations

Time (CDT) Temp. Dew Point Humidity Pressure Visibility Wind Dir Wind Speed Gust Speed Precip Events Conditions
12:15 AM 54.5 °F 53.8 °F 97% 29.66 in 5.0 mi East 3.5 mph - N/A Rain Light Rain
12:35 AM 54.7 °F 54.0 °F 97% 29.65 in 5.0 mi ENE 5.8 mph - 0.01 in Rain Light Rain
12:55 AM 55.0 °F 54.5 °F 98% 29.63 in 4.0 mi East 6.9 mph - 0.02 in Rain Light Rain
1:15 AM 55.6 °F 55.0 °F 98% 29.63 in 5.0 mi ENE 5.8 mph - 0.02 in Rain Rain
1:35 AM 55.9 °F 55.4 °F 98% 29.63 in 5.0 mi East 5.8 mph - 0.05 in Rain Light Rain
1:55 AM 56.8 °F 56.3 °F 98% 29.60 in 5.0 mi ENE 8.1 mph - 0.07 in Rain Light Rain
2:15 AM 57.7 °F 57.2 °F 98% 29.59 in 5.0 mi NE 4.6 mph - N/A Rain Light Rain
2:35 AM 58.6 °F 58.1 °F 98% 29.58 in 7.0 mi North 4.6 mph - 0.01 in Rain Light Rain
2:55 AM 59.0 °F 58.1 °F 97% 29.57 in 5.0 mi NNE 4.6 mph - 0.02 in   Overcast
3:15 AM 59.0 °F 58.5 °F 98% 29.56 in 5.0 mi NNE 4.6 mph - N/A   Overcast
3:35 AM 58.3 °F 57.6 °F 97% 29.57 in 5.0 mi North 3.5 mph - N/A Rain Light Rain
3:55 AM 58.1 °F 57.4 °F 97% 29.56 in 7.0 mi NNE 6.9 mph - N/A Rain Light Rain
4:15 AM 57.7 °F 57.2 °F 98% 29.56 in 7.0 mi North 3.5 mph - N/A   Overcast
4:35 AM 57.2 °F 56.7 °F 98% 29.55 in 7.0 mi NNE 5.8 mph - 0.01 in Rain Rain
4:55 AM 54.9 °F 54.1 °F 97% 29.55 in 4.0 mi North 5.8 mph - 0.05 in Rain Rain
5:15 AM 54.0 °F 53.6 °F 99% 29.55 in 4.0 mi North 4.6 mph - 0.01 in   Drizzle
5:35 AM 54.1 °F 53.6 °F 98% 29.55 in 10.0 mi NNE 4.6 mph - 0.01 in   Overcast
5:55 AM 54.0 °F 53.6 °F 99% 29.56 in 10.0 mi Calm Calm - 0.01 in   Overcast
6:15 AM 54.0 °F 53.6 °F 99% 29.57 in 3.0 mi Calm Calm - 0.01 in   Heavy Drizzle
6:35 AM 54.1 °F 53.6 °F 98% 29.58 in 7.0 mi NNE 3.5 mph - 0.02 in   Drizzle
6:55 AM 54.3 °F 53.6 °F 97% 29.58 in 10.0 mi NE 3.5 mph - 0.02 in   Overcast
7:15 AM 54.5 °F 54.0 °F 98% 29.59 in 4.0 mi Calm Calm - 0.01 in Rain Light Rain
7:35 AM 55.0 °F 54.5 °F 98% 29.59 in 7.0 mi Calm Calm - 0.02 in   Drizzle
7:55 AM 55.9 °F 55.4 °F 98% 29.59 in 10.0 mi Calm Calm - 0.02 in   Overcast
8:15 AM 57.2 °F 56.7 °F 98% 29.59 in 10.0 mi Calm Calm - N/A   Overcast
8:35 AM 57.7 °F 57.0 °F 97% 29.59 in 3.0 mi East 3.5 mph - 0.01 in Rain Rain
8:55 AM 58.1 °F 57.4 °F 97% 29.59 in 5.0 mi Calm Calm - 0.02 in   Light Drizzle
9:15 AM 61.0 °F 60.3 °F 97% 29.58 in 10.0 mi SSE 5.8 mph - N/A   Overcast
9:35 AM 63.0 °F 61.2 °F 94% 29.58 in 10.0 mi South 8.1 mph - N/A   Overcast
9:55 AM 64.8 °F 61.7 °F 90% 29.58 in 10.0 mi South 9.2 mph - N/A   Overcast
10:15 AM 65.3 °F 60.3 °F 84% 29.58 in 10.0 mi South 11.5 mph 19.6 mph N/A   Overcast
10:35 AM 64.9 °F 60.1 °F 84% 29.58 in 10.0 mi South 10.4 mph - N/A   Overcast
10:55 AM 67.6 °F 60.1 °F 77% 29.58 in 10.0 mi SSE 10.4 mph - N/A   Overcast
11:15 AM 68.7 °F 59.4 °F 72% 29.58 in 10.0 mi South 10.4 mph 17.3 mph N/A   Overcast
11:35 AM 69.1 °F 58.1 °F 68% 29.58 in 10.0 mi SSE 11.5 mph 18.4 mph N/A   Overcast
11:55 AM 69.3 °F 58.6 °F 69% 29.57 in 10.0 mi SSE 9.2 mph 18.4 mph N/A   Mostly Cloudy
12:15 PM 70.0 °F 57.6 °F 65% 29.57 in 10.0 mi SSE 11.5 mph - N/A   Mostly Cloudy
12:35 PM 71.2 °F 57.7 °F 62% 29.57 in 10.0 mi SSE 11.5 mph 19.6 mph N/A   Mostly Cloudy
1:15 PM 70.9 °F 56.7 °F 61% 29.57 in 10.0 mi SSE 10.4 mph - N/A   Overcast
1:35 PM 71.1 °F 56.8 °F 61% 29.57 in 10.0 mi SSE 12.7 mph - N/A   Overcast
1:55 PM 70.3 °F 56.5 °F 61% 29.56 in 10.0 mi South 13.8 mph - N/A   Overcast
2:15 PM 71.4 °F 56.5 °F 59% 29.56 in 10.0 mi SE 8.1 mph 18.4 mph N/A   Overcast
2:35 PM 73.0 °F 56.8 °F 57% 29.55 in 10.0 mi SE 12.7 mph 18.4 mph N/A   Mostly Cloudy
2:55 PM 70.0 °F 56.8 °F 63% 29.56 in 10.0 mi SSE 11.5 mph - N/A   Mostly Cloudy
3:15 PM 65.1 °F 60.3 °F 84% 29.58 in 5.0 mi SSW 11.5 mph - 0.10 in Rain Heavy Rain
3:35 PM 64.4 °F 59.7 °F 85% 29.58 in 10.0 mi South 10.4 mph - 0.11 in Rain Light Rain
3:55 PM 64.2 °F 59.9 °F 86% 29.58 in 10.0 mi South 9.2 mph - 0.11 in   Light Drizzle
4:15 PM 66.2 °F 58.8 °F 77% 29.58 in 10.0 mi South 8.1 mph - N/A   Overcast
4:55 PM 67.6 °F 57.9 °F 71% 29.59 in 10.0 mi SSW 9.2 mph - N/A   Overcast
5:15 PM 69.4 °F 59.0 °F 69% 29.59 in 10.0 mi SSW 8.1 mph - N/A   Overcast
5:35 PM 68.9 °F 58.3 °F 69% 29.59 in 10.0 mi SW 9.2 mph - N/A   Overcast
5:55 PM 68.9 °F 58.3 °F 69% 29.59 in 10.0 mi SW 10.4 mph 16.1 mph N/A   Overcast
6:15 PM 68.4 °F 58.5 °F 71% 29.60 in 10.0 mi SSW 8.1 mph - N/A   Light Drizzle
6:35 PM 60.8 °F 55.6 °F 83% 29.60 in 10.0 mi NNE 9.2 mph - N/A   Overcast
6:55 PM 58.1 °F 55.9 °F 93% 29.62 in 10.0 mi NNE 10.4 mph - 0.01 in   Overcast
7:15 PM 57.6 °F 56.1 °F 95% 29.63 in 10.0 mi NNE 9.2 mph - N/A   Overcast
7:35 PM 56.7 °F 55.4 °F 96% 29.63 in 10.0 mi NE 8.1 mph - N/A   Overcast
7:55 PM 55.8 °F 54.5 °F 96% 29.63 in 10.0 mi NE 8.1 mph - N/A   Overcast
8:15 PM 53.8 °F 52.7 °F 96% 29.63 in 10.0 mi NE 11.5 mph - N/A   Overcast
8:35 PM 52.9 °F 51.8 °F 96% 29.65 in 10.0 mi NE 6.9 mph - N/A   Overcast
8:55 PM 52.5 °F 51.4 °F 96% 29.65 in 10.0 mi NE 8.1 mph - N/A   Overcast
9:15 PM 52.2 °F 51.3 °F 97% 29.65 in 10.0 mi NE 6.9 mph - N/A   Overcast
9:35 PM 52.0 °F 51.1 °F 97% 29.65 in 10.0 mi NE 8.1 mph - N/A   Overcast
9:55 PM 51.4 °F 50.5 °F 97% 29.65 in 10.0 mi NE 6.9 mph - N/A   Overcast
10:15 PM 50.9 °F 50.0 °F 97% 29.66 in 10.0 mi NE 6.9 mph - N/A   Overcast
10:35 PM 50.7 °F 50.0 °F 97% 29.65 in 10.0 mi ENE 9.2 mph - N/A   Overcast
10:55 PM 50.2 °F 49.3 °F 97% 29.65 in 10.0 mi ENE 9.2 mph - N/A   Overcast
11:15 PM 50.0 °F 49.1 °F 97% 29.64 in 10.0 mi ENE 5.8 mph - N/A   Overcast
11:35 PM 49.8 °F 49.1 °F 97% 29.63 in 7.0 mi ENE 5.8 mph - N/A   Overcast
11:55 PM 49.3 °F 48.6 °F 97% 29.61 in 4.0 mi NE 10.4 mph - N/A   Overcast